Location: Stara Lesna
(49.1528°N, 20.2911°E)
Time: 03:43:45
(UTC+02:00)

USA 215 - Pass Details

Date: 13 July 2020
Orbit: 1102 x 1106 km, 123.0° (Epoch: 08 August)

Event Time Altitude Azimuth Distance (km) Brightness Sun altitude
Rises 00:48:49 0° 58° (ENE) 3,927 6.6 -19.0°
Reaches altitude 10° 00:51:19 10° 56° (NE) 2,967 6.0 -19.0°
Maximum altitude 00:57:47 67° 336° (NNW) 1,189 3.6 -19.0°
Drops below altitude 10° 01:04:15 10° 255° (WSW) 2,958 5.3 -18.9°
Sets 01:06:44 0° 253° (WSW) 3,914 5.9 -18.9°
